ARIANE 2 DEB, 33567

Orbit data source: Space-Track

ARIANE 2 DEB, 33567 is space debris in HEO originally from a launch on Fri, 27 Jan 1989 UTC launched from the French Guiana (FRGUI). Debris objects in space refer to the collection of defunct objects orbiting the Earth. Examples of debris include non-operational satellites, rocket bodies, and fragments generated from explosions, collisions, or faulty payload assembly.

Loading next visibility...
Identifier
33567, 1989-006BK
Orbit
HEO
Country
Flag of FRFR
Related business
Manufacturer
EADS/LV
Mission
Spacecraft
Bus & Motor
Unknown
Mass
Unknown
Launch date (UTC)
1989-01-27 (37 years ago)
Launch vehicle
Unknown
Launch site
French Guiana (FRGUI)
Object type
Payload
Rocket body
Debris
Shape & HBR
Unknown shape, 0.2 m
Radar Cross Section
Medium (>0.1 m² and <1 m²)

Expand to show TLE details & history
Last TLE update: 1 week ago

TLE from 1 week ago
0 ARIANE 2 DEB
1 33567U 89006BK  26086.03516643 -.00000139  00000-0 -48682-2 0  9992
2 33567   9.2793 313.0638 7082865 320.2223 298.8201  2.26351671177345
Epoch: 2026-03-27T00:50Z
TLE epoch observation values (Epoch: 2026-03-27T00:50:38.379Z)
Latitude
0.33346°
Longitude
-66.08368°
Altitude
21,416.046 km
Speed
3.523 km/s
True Right ascension
08h 44m 12s
True Declination
0° 19' 59"
Sunlit
Object was in daylight at epoch
Visualization orbit readout
Latitude
Unknown
Longitude
Unknown
Altitude
Unknown
Speed
Unknown
Apparent Right ascension
Unknown
Apparent Declination
Unknown
Sunlit
N/A
Visualization observer readout
Local Sidereal Time
00:44:27
Azimuth
Unknown
Elevation
Unknown
Doppler factor
Unknown
Orbital elements
Apogee altitude
35,487.79 km
Perigee altitude
771.048 km
Semi-major axis
24,507.556 km
Eccentricity
0.70829
Inclination
9.2793°
RAAN
313.0638°
Arg. of periapsis
320.2223°
True anomaly
217.6135°
Mean anomaly
298.8201°
Eccentric anomaly
258.9858°
Mean motion
0.56571 °/min
Orbital period
636.37 mins
BSTAR
-0.0048682
Loading maneuver chart data...
Computing Atmospheric mass density...
Loading historical data...
Loading historical data...
Loading historical data...
Loading historical data...
Loading historical data...
Loading historical data...
Loading historical data...

Documentation

Showing up to 5 results
|